Anchorage Merrill, AK

4:40 PM AKDT on June 21, 2018 (GMT -0800)
Merrill

Weather History for PAMR - June, 2018

Change the Weather History Date:

Thursday, June 14, 2018

  Actual Average Record
Temperature  
Mean Temperature 62 °F -  
Max Temperature 71 °F 63 °F 80 °F (2015)
Min Temperature 52 °F 47 °F 43 °F (2007)
Degree Days  
Heating Degree Days 4    
Growing Degree Days 12 (Base 50)    
Moisture  
Dew Point 46 °F    
Average Humidity 57    
Maximum Humidity 86    
Minimum Humidity 38    
Precipitation  
Precipitation 0.00 in - - ()
Sea Level Pressure  
Sea Level Pressure 29.85 in    
Wind  
Wind Speed 5 mph (WSW)    
Max Wind Speed 13 mph    
Max Gust Speed 18 mph    
Visibility 10 miles    
Events      
Averages and records for this station are not official NWS values.
T = Trace of Precipitation, MM = Missing Value Source: NWS Daily Summary

Daily Weather History Graph

Daily Weather History Graph

Search for Another Location

Airport or City:

Astronomy

Jun. 14, 2018 Rise Set
Actual Time 4:21 AM AKDT 11:38 PM AKDT
Civil Twilight 2:32 AM AKDT 1:27 AM AKDT
Nautical Twilight Sun does not set Sun does not set
Astronomical Twilight Sun does not set Sun does not set
Moon 5:55 AM AKDT (6/14) No Moon Set
Length of Visible Light 22h 55m
Length of Day
19h 17m
New Moon, 2% of the Moon is Illuminated
Jun 14
New Moon
Jun 20
First Quarter
Jun 27
Full
Jul 5
Last Quarter
Jul 12
New

Hourly Weather History & Observations

Time (AKDT) Temp. Dew Point Humidity Pressure Visibility Wind Dir Wind Speed Gust Speed Precip Events Conditions
12:53 AM 55.0 °F 45.0 °F 69% 29.83 in 10.0 mi ESE 3.5 mph - N/A   Mostly Cloudy
1:53 AM 54.0 °F 44.1 °F 69% 29.83 in 10.0 mi Calm Calm - N/A   Mostly Cloudy
2:53 AM 54.0 °F 44.1 °F 69% 29.83 in 10.0 mi Calm Calm - N/A   Mostly Cloudy
3:53 AM 52.0 °F 44.1 °F 74% 29.83 in 10.0 mi Calm Calm - N/A   Mostly Cloudy
4:53 AM 52.0 °F 44.1 °F 74% 29.82 in 10.0 mi Calm Calm - N/A   Mostly Cloudy
5:53 AM 53.1 °F 44.1 °F 71% 29.82 in 10.0 mi North 3.5 mph - N/A   Overcast
6:53 AM 53.1 °F 48.9 °F 86% 29.82 in 10.0 mi WNW 5.8 mph - N/A   Overcast
7:53 AM 55.9 °F 48.0 °F 75% 29.83 in 10.0 mi NNW 4.6 mph - N/A   Overcast
8:53 AM 57.9 °F 48.0 °F 70% 29.84 in 10.0 mi Variable 3.5 mph - N/A   Mostly Cloudy
9:53 AM 63.0 °F 46.9 °F 56% 29.84 in 10.0 mi SSW 4.6 mph - N/A   Partly Cloudy
10:53 AM 66.0 °F 45.0 °F 47% 29.84 in 10.0 mi WSW 9.2 mph - N/A   Clear
11:53 AM 64.9 °F 46.9 °F 52% 29.84 in 10.0 mi SW 5.8 mph - N/A   Clear
12:53 PM 66.0 °F 48.0 °F 52% 29.85 in 10.0 mi West 9.2 mph - N/A   Clear
1:53 PM 68.0 °F 50.0 °F 52% 29.85 in 10.0 mi West 9.2 mph - N/A   Clear
2:53 PM 66.9 °F 50.0 °F 54% 29.85 in 10.0 mi West 12.7 mph - N/A   Clear
3:53 PM 68.0 °F 51.1 °F 55% 29.85 in 10.0 mi WNW 8.1 mph - N/A   Partly Cloudy
4:53 PM 68.0 °F 50.0 °F 52% 29.85 in 10.0 mi WNW 10.4 mph - N/A   Partly Cloudy
5:53 PM 66.9 °F 50.0 °F 54% 29.85 in 10.0 mi WNW 11.5 mph - N/A   Clear
6:53 PM 71.1 °F 44.1 °F 38% 29.86 in 10.0 mi SSW 8.1 mph 18.4 mph N/A   Clear
7:53 PM 69.1 °F 43.0 °F 39% 29.86 in 10.0 mi South 11.5 mph 18.4 mph N/A   Clear
8:53 PM 68.0 °F 42.1 °F 39% 29.87 in 10.0 mi South 10.4 mph - N/A   Clear
9:53 PM 66.9 °F 42.1 °F 40% 29.88 in 10.0 mi South 8.1 mph - N/A   Clear
10:53 PM 64.9 °F 42.1 °F 43% 29.90 in 10.0 mi SSE 4.6 mph - N/A   Partly Cloudy
11:53 PM 62.1 °F 42.1 °F 48% 29.91 in 10.0 mi SSE 3.5 mph - N/A   Clear